Weather History for Copper Mountain, CO

Change the Weather History Date:

Thursday, September 20, 2012

  Actual Average (KLXV) Record (KLXV)
Temperature  
Mean Temperature 50 °F -  
Max Temperature 59 °F 59 °F 69 °F (2005)
Min Temperature 42 °F 30 °F 20 °F (1978)
Degree Days  
Heating Degree Days 14 20  
Month to date heating degree days 354  
Since 1 July heating degree days 1076  
Cooling Degree Days 0 0  
Month to date cooling degree days 0  
Year to date cooling degree days 0  
Moisture  
Dew Point 11 °F    
Average Humidity 22    
Maximum Humidity 31    
Minimum Humidity 13    
Precipitation  
Precipitation 0.00 in 0.03 in 0.38 in (1992)
Month to date precipitation 0.78  
Year to date precipitation 9.73  
Sea Level Pressure  
Sea Level Pressure 30.60 in    
Wind  
Wind Speed 11 mph (West)    
Max Wind Speed 21 mph    
Max Gust Speed 28 mph    
Visibility 10 miles    
Events      
T = Trace of Precipitation, MM = Missing Value Source: NWS Daily Summary

Daily Weather History Graph

Daily Weather History Graph

Search for Another Location

Airport:

Trip Planner

Search our weather history database for the weather conditions in past years. The results will help you decide how hot, cold, wet, or windy it might be!

Date:

Astronomy

Sep. 20, 2012 Rise Set
Actual Time 6:50 AM MDT 7:04 PM MDT
Civil Twilight 6:24 AM MDT 7:30 PM MDT
Nautical Twilight 5:52 AM MDT 8:02 PM MDT
Astronomical Twilight 5:20 AM MDT 8:34 PM MDT
Moon 12:10 PM MDT (9/20) 10:10 PM MDT (9/20)
Length of Visible Light 13h 06m
Length of Day
12h 13m
Waxing Crescent, 27% of the Moon is Illuminated
Sep 20
Waxing Crescent
Sep 22
First Quarter
Sep 29
Full
Oct 8
Last Quarter
Oct 15
New

Hourly Weather History & Observations

Time (MDT) Temp. Windchill Dew Point Humidity Pressure Visibility Wind Dir Wind Speed Gust Speed Precip Events Conditions
12:15 AM 46.4 °F 43.5 °F 15.8 °F 29% 30.62 in 10.0 mi South 5.8 mph - N/A   Clear
12:35 AM 44.6 °F 40.7 °F 15.8 °F 31% 30.62 in 10.0 mi South 6.9 mph - N/A   Clear
12:55 AM 46.4 °F 43.5 °F 14.0 °F 27% 30.62 in 10.0 mi South 5.8 mph - N/A   Clear
1:15 AM 44.6 °F 43.1 °F 12.2 °F 27% 30.62 in 10.0 mi West 3.5 mph - N/A   Clear
1:35 AM 46.4 °F 45.2 °F 12.2 °F 25% 30.62 in 10.0 mi West 3.5 mph - N/A   Clear
1:55 AM 44.6 °F 41.4 °F 15.8 °F 31% 30.62 in 10.0 mi West 5.8 mph - N/A   Clear
2:15 AM 46.4 °F 43.5 °F 14.0 °F 27% 30.62 in 10.0 mi West 5.8 mph - N/A   Clear
2:35 AM 44.6 °F 39.2 °F 12.2 °F 27% 30.61 in 10.0 mi West 10.4 mph - N/A   Clear
2:55 AM 44.6 °F 38.1 °F 14.0 °F 29% 30.60 in 10.0 mi West 13.8 mph - N/A   Clear
3:15 AM 44.6 °F 40.2 °F 10.4 °F 25% 30.59 in 10.0 mi West 8.1 mph 17.3 mph N/A   Clear
3:35 AM 44.6 °F 39.2 °F 10.4 °F 25% 30.59 in 10.0 mi West 10.4 mph 16.1 mph N/A   Clear
4:15 AM 44.6 °F 37.4 °F 12.2 °F 27% 30.59 in 10.0 mi West 16.1 mph - N/A   Clear
4:35 AM 44.6 °F 37.4 °F 12.2 °F 27% 30.59 in 10.0 mi West 16.1 mph - N/A   Clear
4:55 AM 44.6 °F 37.8 °F 10.4 °F 25% 30.59 in 10.0 mi West 15.0 mph - N/A   Clear
5:15 AM 44.6 °F 38.1 °F 10.4 °F 25% 30.59 in 10.0 mi West 13.8 mph - N/A   Clear
5:35 AM 44.6 °F 38.1 °F 12.2 °F 27% 30.59 in 10.0 mi West 13.8 mph - N/A   Clear
5:55 AM 44.6 °F 38.1 °F 10.4 °F 25% 30.58 in 10.0 mi West 13.8 mph - N/A   Clear
6:15 AM 44.6 °F 37.8 °F 10.4 °F 25% 30.58 in 10.0 mi West 15.0 mph - N/A   Clear
6:35 AM 44.6 °F 37.2 °F 10.4 °F 25% 30.58 in 10.0 mi West 17.3 mph - N/A   Clear
7:15 AM 44.6 °F 36.4 °F 12.2 °F 27% 30.59 in 10.0 mi West 20.7 mph - N/A   Clear
7:35 AM 44.6 °F 38.1 °F 12.2 °F 27% 30.59 in 10.0 mi West 13.8 mph - N/A   Clear
7:55 AM 42.8 °F 36.2 °F 14.0 °F 31% 30.59 in 10.0 mi West 12.7 mph - N/A   Clear
8:00 AM 42.8 °F 37.0 °F 14.0 °F 31% 30.59 in 10.0 mi West 10.4 mph - N/A   Clear
8:35 AM 44.6 °F 40.7 °F 14.0 °F 29% 30.59 in 10.0 mi WSW 6.9 mph - N/A   Clear
8:55 AM 46.4 °F 41.5 °F 14.0 °F 27% 30.59 in 10.0 mi West 10.4 mph - N/A   Clear
9:15 AM 46.4 °F 40.7 °F 12.2 °F 25% 30.60 in 10.0 mi West 12.7 mph - N/A   Clear
9:55 AM 48.2 °F - 12.2 °F 24% 30.61 in 10.0 mi West 18.4 mph - N/A   Clear
10:15 AM 50.0 °F - 12.2 °F 22% 30.62 in 10.0 mi West 16.1 mph 23.0 mph N/A   Clear
10:35 AM 51.8 °F - 12.2 °F 21% 30.62 in 10.0 mi West 17.3 mph 26.5 mph N/A   Clear
10:55 AM 51.8 °F - 12.2 °F 21% 30.62 in 10.0 mi West 13.8 mph 19.6 mph N/A   Clear
11:15 AM 53.6 °F - 12.2 °F 19% 30.62 in 10.0 mi West 17.3 mph 24.2 mph N/A   Clear
11:35 AM 53.6 °F - 14.0 °F 21% 30.62 in 10.0 mi WNW 6.9 mph - N/A   Clear
11:55 AM 53.6 °F - 12.2 °F 19% 30.62 in 10.0 mi West 12.7 mph 19.6 mph N/A   Scattered Clouds
12:15 PM 55.4 °F - 12.2 °F 18% 30.62 in 10.0 mi WSW 6.9 mph - N/A   Scattered Clouds
12:35 PM 57.2 °F - 14.0 °F 18% 30.61 in 10.0 mi NNW 5.8 mph - N/A   Clear
12:55 PM 55.4 °F - 12.2 °F 18% 30.60 in 10.0 mi West 5.8 mph - N/A   Scattered Clouds
1:15 PM 55.4 °F - 12.2 °F 18% 30.60 in 10.0 mi West 15.0 mph 20.7 mph N/A   Scattered Clouds
1:35 PM 55.4 °F - 8.6 °F 15% 30.60 in 10.0 mi WSW 5.8 mph 18.4 mph N/A   Scattered Clouds
1:55 PM 59.0 °F - 10.4 °F 15% 30.59 in 10.0 mi West 11.5 mph 19.6 mph N/A   Scattered Clouds
2:15 PM 57.2 °F - 10.4 °F 16% 30.59 in 10.0 mi West 11.5 mph 19.6 mph N/A   Mostly Cloudy
2:35 PM 53.6 °F - 14.0 °F 21% 30.59 in 10.0 mi West 8.1 mph - N/A   Mostly Cloudy
2:55 PM 55.4 °F - 10.4 °F 17% 30.59 in 10.0 mi West 10.4 mph 18.4 mph N/A   Mostly Cloudy
3:15 PM 53.6 °F - 12.2 °F 19% 30.59 in 10.0 mi West 19.6 mph 26.5 mph N/A   Mostly Cloudy
3:35 PM 59.0 °F - 14.0 °F 17% 30.59 in 10.0 mi West 8.1 mph - N/A   Mostly Cloudy
3:55 PM 59.0 °F - 8.6 °F 14% 30.59 in 10.0 mi West 16.1 mph 23.0 mph N/A   Overcast
4:15 PM 55.4 °F - 5.0 °F 13% 30.59 in 10.0 mi West 15.0 mph 27.6 mph N/A   Scattered Clouds
4:35 PM 59.0 °F - 8.6 °F 14% 30.59 in 10.0 mi WNW 15.0 mph 23.0 mph N/A   Clear
4:55 PM 59.0 °F - 6.8 °F 13% 30.58 in 10.0 mi West 11.5 mph 19.6 mph N/A   Clear
5:15 PM 55.4 °F - 5.0 °F 13% 30.58 in 10.0 mi West 18.4 mph 26.5 mph N/A   Clear
5:35 PM 55.4 °F - 5.0 °F 13% 30.59 in 10.0 mi West 20.7 mph 27.6 mph N/A   Clear
5:55 PM 55.4 °F - 8.6 °F 15% 30.59 in 10.0 mi West 19.6 mph 27.6 mph N/A   Clear
6:15 PM 53.6 °F - 8.6 °F 16% 30.59 in 10.0 mi West 16.1 mph - N/A   Clear
6:35 PM 53.6 °F - 10.4 °F 18% 30.59 in 10.0 mi West 18.4 mph - N/A   Clear
6:55 PM 53.6 °F - 12.2 °F 19% 30.59 in 10.0 mi West 16.1 mph 21.9 mph N/A   Clear
7:15 PM 51.8 °F - 10.4 °F 19% 30.59 in 10.0 mi West 17.3 mph 24.2 mph N/A   Clear
7:35 PM 51.8 °F - 10.4 °F 19% 30.60 in 10.0 mi West 17.3 mph 23.0 mph N/A   Clear
7:55 PM 50.0 °F - 10.4 °F 20% 30.60 in 10.0 mi West 17.3 mph - N/A   Clear
8:15 PM 50.0 °F - 10.4 °F 20% 30.60 in 10.0 mi West 17.3 mph - N/A   Clear
8:35 PM 50.0 °F - 10.4 °F 20% 30.61 in 10.0 mi West 15.0 mph - N/A   Clear
8:55 PM 48.2 °F - 10.4 °F 22% 30.62 in 10.0 mi West 15.0 mph - N/A   Clear
9:15 PM 48.2 °F - 10.4 °F 22% 30.62 in 10.0 mi West 12.7 mph - N/A   Clear
9:35 PM 48.2 °F - 10.4 °F 22% 30.62 in 10.0 mi West 10.4 mph - N/A   Clear
10:15 PM 46.4 °F 41.1 °F 10.4 °F 23% 30.62 in 10.0 mi West 11.5 mph - N/A   Clear
10:35 PM 46.4 °F 42.9 °F 12.2 °F 25% 30.62 in 10.0 mi West 6.9 mph - N/A   Clear
10:55 PM 46.4 °F 41.1 °F 12.2 °F 25% 30.62 in 10.0 mi West 11.5 mph - N/A   Clear
11:15 PM 46.4 °F 41.5 °F 12.2 °F 25% 30.62 in 10.0 mi West 10.4 mph - N/A   Clear
11:35 PM 46.4 °F 41.5 °F 12.2 °F 25% 30.62 in 10.0 mi West 10.4 mph - N/A   Clear
11:55 PM 44.6 °F 38.8 °F 12.2 °F 27% 30.62 in 10.0 mi West 11.5 mph - N/A   Clear